AirNav   Duncan Aviation - Near you to keep you flying
 
 1615 users online  

1G5 Medina Municipal Airport
Medina, Ohio, USA

GOING TO MEDINA?


FAA INFORMATION EFFECTIVE 09 SEPTEMBER 2021

Location

FAA Identifier: 1G5
Lat/Long: 41-07-53.2000N 081-45-53.6000W
41-07.886667N 081-45.893333W
41.1314444,-81.7648889
(estimated)
Elevation: 1189.8 ft. / 362.7 m (surveyed)
Variation: 07W (1990)
From city: 4 miles E of MEDINA, OH
Time zone: UTC -4 (UTC -5 during Standard Time)
Zip code: 44256

Airport Operations

Airport use: Open to the public
Control tower: no
ARTCC: CLEVELAND CENTER
FSS: CLEVELAND FLIGHT SERVICE STATION
NOTAMs facility: CLE (NOTAM-D service available)
Attendance: APR-OCT 0800-2000, NOV-MAR 0800-1700
Wind indicator: lighted
Segmented circle: yes
Lights: ACTVT REIL RWY 27; PAPI RWY 01, 19, & 27; MIRL RWY 01/19 & 09/27 - CTAF. PAPI RWY 01, 19, & 27 OPR CONSLY DUSK-2200.
Beacon: white-green (lighted land airport)
Operates sunset to sunrise.

Airport Communications

CTAF/UNICOM: 123.0
CLEVELAND APPROACH: 125.35
CLEVELAND DEPARTURE: 125.35
WX ASOS at AKR (15 nm SE): 126.825 (330-724-4237)
WX AWOS-2 at 1G3 (16 nm E): 119.15 (330-346-1497)
WX ASOS at BJJ (16 nm S): 118.075 (330-669-9105)
WX ASOS at CLE (17 nm N): PHONE 216-416-2729
WX ASOS at CAK (19 nm SE): PHONE 330-493-5260

Nearby radio navigation aids

VOR radial/distance  VOR name  Freq  Var
DJBr132/22.5DRYER VOR/DME113.6005W
ACOr277/25.5AKRON VOR/DME114.4004W
BSVr331/27.9BRIGGS VOR/DME112.4004W
CXRr235/35.6CHARDON VOR/DME112.7005W

 
NDB name  Hdg/Dist  Freq  Var  ID
LAKELAND216/37.326308WLQL .-.. --.- .-..

Airport Services

Fuel available: 100LL JET-A+
100LL:AVBL H24 SELF SER.
Parking: hangars and tiedowns
Airframe service: MAJOR
Powerplant service: MAJOR

Runway Information

Runway 9/27

Dimensions: 3556 x 75 ft. / 1084 x 23 m
Surface: asphalt, in good condition
Weight bearing capacity: 
Single wheel: 30.0
Runway edge lights: medium intensity
RUNWAY 9  RUNWAY 27
Latitude: 41-07.881618N41-07.946467N
Longitude: 081-46.425062W081-45.655383W
Elevation: 1168.8 ft.1182.8 ft.
Traffic pattern: leftleft
Runway heading: 091 magnetic, 084 true271 magnetic, 264 true
Markings: nonprecision, in good conditionnonprecision, in good condition
Visual slope indicator: 4-light PAPI on left (3.00 degrees glide path)
U/S INDEFLY.
4-light PAPI on left (3.50 degrees glide path)
Runway end identifier lights: yes
Touchdown point: yes, no lightsyes, no lights
Obstructions: 20 ft. tree, 478 ft. from runway, 36 ft. right of centerline, 13:1 slope to clear
+4-6 FT BRUSH, 100-200 FT DIST, 180-200 FT R.
none

Runway 1/19

Dimensions: 2868 x 60 ft. / 874 x 18 m
Surface: asphalt, in fair condition
Weight bearing capacity: 
Single wheel: 25.0
Runway edge lights: medium intensity
RUNWAY 1  RUNWAY 19
Latitude: 41-07.616738N41-08.088963N
Longitude: 081-45.718333W081-45.707340W
Elevation: 1170.1 ft.1189.8 ft.
Traffic pattern: leftleft
Runway heading: 008 magnetic, 001 true188 magnetic, 181 true
Displaced threshold: no737 ft.
Markings: basic, in good conditionbasic, in good condition
Visual slope indicator: 4-light PAPI on left (3.00 degrees glide path)4-light PAPI on left (4.00 degrees glide path)
Touchdown point: yes, no lightsyes, no lights
Obstructions: 15 ft. pline, marked, 450 ft. from runway, 16:1 slope to clear71 ft. trees, 610 ft. from runway, 175 ft. left of centerline, 5:1 slope to clear
APCH SLP 16:1 DUE TO +71 FT TREE, 1347 FT FM DTHR.

Airport Ownership and Management from official FAA records

Ownership: Publicly-owned
Owner: CITY OF MEDINA
PO BOX 703
MEDINA, OH 44258-0703
Phone 330-725-8861
Manager: GREG HUBER
PO BOX 703
MEDINA, OH 44258-0703
Phone 330-239-1606

Airport Operational Statistics

Aircraft based on the field: 46
Single engine airplanes: 41
Multi engine airplanes: 3
Helicopters: 2
    
Aircraft operations: avg 218/day *
69% local general aviation
29% transient general aviation
2% air taxi
<1% military
* for 12-month period ending 23 September 2020

Additional Remarks

DEER, BIRDS, & OTR WILDLIFE ON & INVOF ARPT.
FOR CD CTC CLEVELAND APCH AT 216-352-2323.

Instrument Procedures

NOTE: All procedures below are presented as PDF files. If you need a reader for these files, you should download the free Adobe Reader.

NOT FOR NAVIGATION. Please procure official charts for flight.
FAA instrument procedures published for use from 09 September 2021 at 0901Z to 07 October 2021 at 0900Z.

 
IAPs - Instrument Approach Procedures
RNAV (GPS) RWY 09   download (171KB)
RNAV (GPS) RWY 27   download (172KB)
VOR RWY 27   download (210KB)
NOTE: Special Take-Off Minimums/Departure Procedures apply   download (164KB)

Other nearby airports with instrument procedures:

3G3 - Wadsworth Municipal Airport (8 nm S)
KAKR - Akron Fulton International Airport (15 nm SE)
1G3 - Kent State University Airport (16 nm E)
KBJJ - Wayne County Airport (16 nm S)
KCLE - Cleveland-Hopkins International Airport (17 nm N)
1G1 - Elyria Airport (19 nm NW)
KCAK - Akron-Canton Regional Airport (19 nm SE)
 
Loc | Ops | Rwys | IFR | FBO | Links
Com | Nav | Svcs | Stats | Notes
Area around 1G5 (Medina Municipal Airport)
 
Road maps at: MapQuest Bing Google
 
Aerial photo
WARNING: Photo may not be current or correct
Aerial photo of 1G5 (Medina Municipal Airport)
Do you have a better or more recent aerial photo of Medina Municipal Airport that you would like to share? If so, please send us your photo.

 
Sectional chart

 
Airport distance calculator
Flying to Medina Municipal Airport? Find the distance to fly.

From to 1G5

Sunrise and sunset
Times for 22-Sep-2021
 Local
(UTC-4)
 Zulu
(UTC)
Morning civil twilight06:4810:48
Sunrise07:1511:15
Sunset19:2423:24
Evening civil twilight19:5223:52

Current date and time
Zulu (UTC)  22-Sep-2021 18:58:21
Local (UTC-4)  22-Sep-2021 14:58:21
 
METAR
KAKR 
15nm SE 
221854Z AUTO 29012G21KT 1 1/4SM +RA FEW006 BKN038 OVC050 20/17 A2966 RMK AO2 LTG DSNT NE AND S RAB06 SLP036 P0029 T02000172
KBJJ 
17nm S 
221805Z AUTO 34015G22KT 10SM -RA SCT017 BKN050 OVC060 16/ A2970 RMK AO2 P0000 T0161 $
KCLE 
18nm N 
221851Z 02013KT 3SM RA BR BKN006 OVC011 17/16 A2969 RMK AO2 LTG DSNT SE SLP065 P0058 T01720161
KCAK 
19nm SE 
221851Z 31012KT 3SM R23/3500VP6000FT RA BR FEW006 BKN025 OVC065 19/18 A2965 RMK AO2 PK WND 12026/1811 WSHFT 1807 LTG DSNT NE SLP035 RAB1758 P0035 T01940178
KLPR 
23nm NW 
221853Z AUTO 03011G20KT 4SM RA BR BKN008 OVC011 17/16 A2972 RMK AO2 SLP059 P0034 T01670156
KPOV 
24nm E 
221855Z AUTO 06007KT 7SM SCT028 BKN041 OVC055 23/19 A2963 RMK AO2 T02260185 PWINO
KBKL 
25nm N 
221853Z 35022G29KT 2SM RA BR OVC009 18/17 A2969 RMK AO2 PK WND 36032/1820 LTG DSNT SE SLP050 P0052 T01830172
KCGF 
29nm NE 
221745Z 02006KT 4SM -RA BR OVC005 18/18 A2972
TAF
KCLE 
18nm N 
221739Z 2218/2324 01015G25KT 2SM SHRA OVC003 FM222000 02015G25KT 1 1/2SM SHRA OVC003 FM230200 13010G20KT P6SM OVC003 FM230500 17012KT P6SM BKN008 FM230600 17011G19KT P6SM BKN010
KCAK 
19nm SE 
221739Z 2218/2318 15010KT 6SM SHRA VCTS OVC020CB FM221900 16009KT 5SM SHRA VCTS OVC015CB TEMPO 2219/2221 2SM TSRA OVC008CB FM222100 18007KT 3SM SHRA OVC008 FM222300 19011G20KT 4SM SHRA OVC003 FM230100 19015G25KT P6SM VCSH OVC008 FM230700 18013KT P6SM BKN010
NOTAMs
Click for the latest NOTAMs
NOTAMs are issued by the DoD/FAA and will open in a separate window not controlled by AirNav.

 

 
 

FBO, Fuel Providers, and Aircraft Ground Support

  
 Business Name 
 
 Contact 
 
 Services / Description 
 
Fuel Prices
 
Comments
  
Flight Services of Medina 330-239-1606
[web site]
Aviation fuel, Aircraft parking (ramp or tiedown), Flight training, Aircraft rental, Aerial tours / aerial sightseeing, Aerial photography, Aircraft maintenance, ...

More info about Flight Services of Medina
EPIC
100LL Jet A
AS --- $3.95 
SS $4.85 --- 
 Updated 08-Sep-2021
 
   write
AS=Assisted/Self Service
SS=Self service
Update Fuel Prices
 

Would you like to see your business listed on this page?

 If your business provides an interesting product or service to pilots, flight crews, aircraft, or users of the Medina Municipal Airport, you should consider listing it here.  To start the listing process, click on the button below
 
Add a business
 

Other Pages about Medina Municipal Airport

www.medinaoh.org/...
 
Update a link
 
Copyright © AirNav, LLC. All rights reserved. Privacy Policy  Contact